Location: Dobbs
(32.9701°N, 85.9339°W)
Time: 05:52:00
(UTC+00:00)

Daily predictions for brighter satellites

Satellite Brightness Start Highest point End
(mag) Time Altitude Azimuth Time Altitude Azimuth Time Altitude Azimuth
ARGOS 3.3 01:08:00 10° SSE 01:13:16 60° ENE 01:18:35 10° N
Cosmos 1461 3.9 01:09:49 10° SW 01:13:45 52° WNW 01:17:55 10° NNE
Okean 2 Rocket 4.3 01:10:30 10° NNE 01:14:08 25° ENE 01:17:45 10° SE
Cosmos 1437 Rocket 4.0 01:11:58 10° SE 01:14:57 22° E 01:17:57 10° NE
Sich 1 Rocket 4.0 01:11:21 10° N 01:15:46 46° E 01:20:07 10° SSE
SWIFT 4.3 01:13:36 10° SSW 01:16:03 15° S 01:18:30 10° SE
STARLINK-1110 4.3 01:12:55 10° NNW 01:16:53 43° NE 01:20:49 10° ESE
ASTEX 1 3.4 01:12:32 10° SSE 01:17:23 66° E 01:22:16 10° N
Cosmos 909 Rocket 4.4 01:10:56 10° NNW 01:18:05 73° WSW 01:24:19 10° SSE
STARLINK-60 3.2 01:15:03 10° SW 01:18:11 73° NW 01:21:20 10° NE
Cosmos 304 Rocket 4.1 01:13:55 10° S 01:18:27 45° ESE 01:23:00 10° NNE
CZ-2C R/B 3.1 01:13:13 10° NNE 01:18:32 43° E 01:23:45 10° S
Cosmos 1743 3.9 01:15:30 10° NNW 01:19:08 45° W 01:22:47 10° SSW
ASTRO E2 2.7 01:15:38 10° W 01:19:34 68° S 01:23:29 10° ESE
Cosmos 1943 Rocket 3.3 01:16:22 10° SSE 01:20:27 22° E 01:24:35 10° NE
Resurs 01 Rocket 3.5 01:18:12 10° ESE 01:20:44 15° ENE 01:23:17 10° NNE
Cosmos 676 Rocket 4.0 01:15:37 10° NNW 01:20:55 78° ENE 01:26:13 10° SSE
STARLINK-1124 4.1 01:19:21 10° NNW 01:23:22 49° NE 01:27:23 10° ESE
Okean 3 3.5 01:21:42 10° S 01:25:59 72° E 01:30:16 10° N
H-2A R/B 2.3 01:22:49 10° S 01:27:52 76° WSW 01:33:06 10° NNW
STARLINK-1122 4.0 01:24:17 10° NW 01:28:22 55° NE 01:32:15 11° ESE
NOSS 2-2 (D) 3.0 01:25:11 10° SSW 01:28:49 83° ESE 01:32:26 10° NNE
STARLINK-1126 3.8 01:28:55 10° NW 01:33:02 61° NE 01:36:43 12° SE
Orbus 7S 3.9 01:31:39 10° SW 01:34:06 32° SSE 01:38:16 10° ESE
SL-4 R/B 2.1 01:34:08 10° NW 01:36:49 40° WSW 01:39:16 10° S
Cosmos 1833 Rocket 2.8 01:31:38 10° NNW 01:37:16 85° WSW 01:42:52 10° SSE
STARLINK-1082 3.7 01:34:13 10° NW 01:38:21 69° NE 01:41:50 14° SE
STARLINK-1444 3.2 01:36:24 10° WSW 01:38:23 42° NW 01:40:20 10° NNE
BREEZE-M DEB 2.0 01:36:07 10° SW 01:38:24 67° NW 01:40:46 10° NE
STARLINK-1452 3.2 01:37:02 10° WSW 01:38:59 41° NW 01:40:56 10° NNE
FREGAT/IRIS 2.8 01:37:01 10° S 01:39:38 60° W 01:42:16 10° NNW
STARLINK-1450 3.4 01:38:20 10° WSW 01:40:14 38° NW 01:42:06 10° NNE
STARLINK-1436 (VISORSAT) 3.4 01:38:23 10° WSW 01:40:18 38° NW 01:42:11 10° NNE
STARLINK-1392 3.4 01:38:28 10° WSW 01:40:22 38° NW 01:42:14 10° NNE
STARLINK-1398 3.4 01:38:26 10° WSW 01:40:22 38° NW 01:42:17 10° NNE
STARLINK-1414 3.4 01:38:27 10° WSW 01:40:22 38° NW 01:42:16 10° NNE
STARLINK-1399 3.4 01:38:28 10° WSW 01:40:22 38° NW 01:42:14 10° NNE
STARLINK-1415 3.4 01:38:29 10° WSW 01:40:23 37° NW 01:42:15 10° NNE
STARLINK-1416 3.4 01:38:28 10° WSW 01:40:23 38° NW 01:42:17 10° NNE
STARLINK-1394 3.4 01:38:29 10° WSW 01:40:23 37° NW 01:42:15 10° NNE
STARLINK-1395 3.4 01:38:30 10° WSW 01:40:23 37° NW 01:42:16 10° NNE
STARLINK-1393 3.4 01:38:30 10° WSW 01:40:23 37° NW 01:42:16 10° NNE
STARLINK-1408 3.4 01:38:29 10° WSW 01:40:24 38° NW 01:42:18 10° NNE
STARLINK-1396 3.4 01:38:30 10° WSW 01:40:24 37° NW 01:42:16 10° NNE
STARLINK-1397 3.4 01:38:31 10° WSW 01:40:24 37° NW 01:42:16 10° NNE
STARLINK-1401 3.4 01:38:31 10° WSW 01:40:24 37° NW 01:42:16 10° NNE
STARLINK-1419 3.4 01:38:29 10° WSW 01:40:25 38° NW 01:42:19 10° NNE
STARLINK-1404 3.4 01:38:31 10° WSW 01:40:25 37° NW 01:42:17 10° NNE
STARLINK-1453 3.4 01:38:32 10° WSW 01:40:25 37° NW 01:42:17 10° NNE
STARLINK-1402 3.4 01:38:33 10° WSW 01:40:27 37° NW 01:42:18 10° NNE
STARLINK-1417 3.4 01:38:33 10° WSW 01:40:27 37° NW 01:42:19 10° NNE
STARLINK-1420 3.4 01:38:32 10° WSW 01:40:27 38° NW 01:42:22 10° NNE
STARLINK-1413 3.4 01:38:34 10° WSW 01:40:28 37° NW 01:42:20 10° NNE
STARLINK-1406 3.4 01:38:34 10° WSW 01:40:28 37° NW 01:42:20 10° NNE
STARLINK-1422 3.4 01:38:33 10° WSW 01:40:28 38° NW 01:42:23 10° NNE
STARLINK-1460 3.4 01:38:34 10° WSW 01:40:29 38° NW 01:42:23 10° NNE
STARLINK-1440 3.4 01:38:36 10° WSW 01:40:30 37° NW 01:42:22 10° NNE
STARLINK-1458 3.4 01:38:35 10° WSW 01:40:30 38° NW 01:42:24 10° NNE
STARLINK-1445 3.4 01:38:37 10° WSW 01:40:30 37° NW 01:42:23 10° NNE
Cosmos 1674 Rocket 4.2 01:36:30 10° SSE 01:40:30 36° E 01:44:33 10° NNE
STARLINK-1443 3.4 01:38:38 10° WSW 01:40:31 37° NW 01:42:24 10° NNE
STARLINK-1454 3.4 01:38:38 10° WSW 01:40:31 37° NW 01:42:24 10° NNE
STARLINK-1437 3.4 01:38:38 10° WSW 01:40:32 38° NW 01:42:27 10° NNE
STARLINK-1451 3.4 01:38:39 10° WSW 01:40:32 37° NW 01:42:25 10° NNE
STARLINK-1457 3.4 01:38:39 10° WSW 01:40:32 37° NW 01:42:25 10° NNE
STARLINK-1446 3.4 01:38:38 10° WSW 01:40:32 38° NW 01:42:28 10° NNE
STARLINK-1456 3.4 01:38:39 10° WSW 01:40:33 37° NW 01:42:25 10° NNE
STARLINK-1442 3.4 01:38:41 10° WSW 01:40:34 37° NW 01:42:26 10° NNE
STARLINK-1447 3.4 01:38:41 10° WSW 01:40:36 38° NW 01:42:31 10° NNE
STARLINK-1423 3.4 01:38:41 10° WSW 01:40:36 38° NW 01:42:31 10° NNE
STARLINK-1455 3.4 01:38:41 10° WSW 01:40:36 38° NW 01:42:31 10° NNE
STARLINK-1405 3.4 01:38:43 10° WSW 01:40:36 37° NW 01:42:29 10° NNE
STARLINK-1421 3.4 01:38:43 10° WSW 01:40:36 37° NW 01:42:29 10° NNE
STARLINK-1441 3.4 01:38:42 10° WSW 01:40:37 38° NW 01:42:31 10° NNE
STARLINK-1400 3.4 01:38:44 10° WSW 01:40:37 37° NW 01:42:30 10° NNE
STARLINK-1410 3.4 01:38:44 10° WSW 01:40:37 37° NW 01:42:30 10° NNE
STARLINK-1407 3.4 01:38:44 10° WSW 01:40:38 37° NW 01:42:30 10° NNE
STARLINK-1439 3.4 01:38:45 10° WSW 01:40:38 37° NW 01:42:31 10° NNE
STARLINK-1448 3.4 01:38:43 10° WSW 01:40:39 38° NW 01:42:33 10° NNE
STARLINK-1449 3.4 01:38:43 10° WSW 01:40:39 38° NW 01:42:33 10° NNE
STARLINK-1409 3.4 01:38:45 10° WSW 01:40:39 37° NW 01:42:31 10° NNE
STARLINK-1351 3.4 01:38:46 10° WSW 01:40:40 37° NW 01:42:31 10° NNE
STARLINK-1370 3.4 01:38:46 10° WSW 01:40:40 37° NW 01:42:31 10° NNE
STARLINK-1418 3.4 01:38:47 10° WSW 01:40:40 37° NW 01:42:32 10° NNE
STARLINK-1434 3.4 01:38:47 10° WSW 01:40:40 37° NW 01:42:32 10° NNE
STARLINK-1403 3.4 01:38:48 10° WSW 01:40:41 37° NW 01:42:33 10° NNE
STARLINK-1433 3.4 01:38:49 10° WSW 01:40:42 37° NW 01:42:34 10° NNE
STARLINK-1411 3.4 01:38:50 10° WSW 01:40:43 37° NW 01:42:35 10° NNE
STARLINK-1438 3.4 01:38:50 10° WSW 01:40:43 37° NW 01:42:36 10° NNE
STARLINK-1412 3.4 01:38:51 10° WSW 01:40:47 38° NW 01:42:41 10° NNE
Iridium 51 4.4 01:37:32 10° S 01:41:20 71° W 01:44:54 10° N
STARLINK-1100 3.6 01:39:09 10° NW 01:43:18 78° NE 01:46:35 16° SE
Cosmos 2297 3.8 01:39:07 10° SSW 01:44:47 87° WNW 01:50:31 10° NNE
NOSS 2-2 (E) 4.5 01:41:44 10° SW 01:45:08 42° WNW 01:48:40 10° NNE
Meteor 2-4 Rocket 4.2 01:42:29 10° SSW 01:47:45 59° W 01:53:03 10° N
COSMOS 2406 4.5 01:42:55 10° NW 01:48:14 40° WSW 01:53:30 10° S
STARLINK-1083 3.6 01:44:07 10° NW 01:48:16 86° NE 01:51:21 17° SE
NOSS 3-4 (A) 4.5 01:44:05 10° SSE 01:48:22 21° ESE 01:52:43 10° ENE
NOSS 3-4 (C) 4.5 01:44:14 10° SSE 01:48:28 21° ESE 01:52:47 10° ENE
Meteor 1-12 Rocket 4.3 01:44:14 10° N 01:49:54 66° E 01:55:38 10° SSE
STARLINK-29 3.0 01:47:03 10° SW 01:50:16 80° NW 01:53:30 10° NE
Cosmos 2279 Rocket 4.1 01:45:49 10° N 01:51:56 56° E 01:57:37 12° SSE
Cosmos 2369 Rocket 3.0 01:47:49 10° SSE 01:52:40 30° ESE 01:57:31 10° NE
STARLINK-1125 3.6 01:49:05 10° NW 01:53:14 84° SW 01:56:09 19° SE
Cosmos 2082 Rocket 2.2 01:47:38 10° NNW 01:53:22 78° ENE 01:58:17 14° SSE
Cosmos 1975 4.4 01:50:17 10° NNW 01:53:57 35° W 01:57:36 10° SSW
ISS -3.1 01:52:44 10° WNW 01:55:59 49° SW 01:58:06 19° SSE
USA 186 3.5 01:54:03 10° SSW 01:56:16 24° W 01:58:37 10° NW
STARLINK-1109 3.7 01:54:03 10° NW 01:58:11 75° SW 02:00:55 20° SE
STARLINK-1091 3.8 01:59:03 10° NW 02:03:09 67° SW 02:05:42 22° SSE
Cosmos 1378 4.2 02:02:56 23° ESE 02:03:53 26° E 02:07:00 10° NNE
USA 267 4.1 01:58:13 10° SSE 02:04:22 43° SW 02:10:33 10° WNW
SJ-6B 3.7 02:01:03 10° S 02:04:36 43° W 02:08:10 10° NNW
H-2A ROCKET BODY 3.5 02:03:20 10° SSW 02:07:28 34° SE 02:21:10 10° E
STARLINK-1072 3.9 02:04:05 10° NW 02:08:10 59° SW 02:10:31 23° SSE
Sakura Rocket 4.2 02:03:18 10° W 02:08:41 54° S 02:13:42 20° ESE
Lacrosse 5 2.6 02:05:33 10° NW 02:10:23 46° WSW 02:13:58 17° S
STARLINK-1096 4.1 02:09:04 10° NW 02:13:05 52° SW 02:15:16 24° SSE
ATLAS 2AS CENTAUR R/B 3.3 02:08:14 10° S 02:15:34 46° ESE 02:23:06 10° NE
Meteor 1-23 Rocket 4.2 02:11:35 10° S 02:17:16 81° E 02:22:55 10° N
STARLINK-1079 4.3 02:14:07 10° WNW 02:18:05 46° SW 02:20:05 25° S
Cosmos 1066 Rocket 4.0 02:14:09 10° S 02:19:31 82° E 02:24:53 10° N
STARLINK-1116 4.5 02:19:08 10° WNW 02:23:02 40° SW 02:24:52 25° S
Cosmos 1092 Rocket 4.4 02:22:30 25° SE 02:25:27 41° E 02:31:09 10° NNE
SAR-Lupe-2 4.0 02:22:42 10° NNE 02:26:07 40° E 02:26:18 40° ESE
COSMOS 2455 3.8 02:30:26 26° ESE 02:30:31 26° ESE 02:35:20 10° NE
H-2A R/B 4.1 02:28:38 10° SW 02:31:18 15° S 02:31:36 15° S
Milstar 3 Cent rocket 3.7 02:25:44 10° SW 02:32:36 51° SSE 02:46:47 10° E
STARLINK-1102 4.3 02:31:23 10° NNW 02:35:20 42° NE 02:36:32 33° E
Spot 2 Rocket 3.8 02:35:31 35° SE 02:37:13 50° ENE 02:42:06 10° N
USA 238 DEB 4.5 02:31:26 10° NNW 02:38:20 44° NE 02:42:03 26° ESE
USA 238 4.5 02:31:32 10° NNW 02:38:26 44° NE 02:42:09 26° ESE
GPS 2-04 Rocket1 2.6 02:36:49 10° W 02:40:07 51° SSW 02:40:07 51° SSW
Okean 1 Rocket 2.9 02:35:53 10° N 02:40:19 75° E 02:41:35 45° SSE
STARLINK-1111 4.2 02:36:20 10° NNW 02:40:21 47° NE 02:41:19 39° E
FALCON 9 DEB 4.3 02:38:20 10° WSW 02:41:37 44° NW 02:44:54 10° NNE
STARLINK-1073 4.0 02:41:16 10° NW 02:45:19 53° NE 02:46:05 45° E
SPOT 5 4.2 02:46:23 26° E 02:47:21 28° ENE 02:51:49 10° NNE
IGS 5A 3.6 02:48:39 51° E 02:49:02 54° ENE 02:53:06 10° N
STARLINK-1121 3.8 02:46:11 10° NW 02:50:17 59° NE 02:50:51 53° E
STARLINK-1329 4.4 02:52:05 36° ENE 02:52:05 36° ENE 02:54:33 10° NE
SL-27 R/B 4.2 02:48:35 10° NNE 02:50:47 23° NE 02:50:47 23° NE
Cosmos 2263 4.0 02:48:43 24° S 02:52:12 75° ESE 02:57:48 10° NNE
ATLAS CENTAUR R/B 1.4 02:52:16 54° S 02:53:07 69° ESE 02:57:23 10° NNE
Okean 2 3.2 02:54:11 68° SSE 02:54:36 77° E 02:58:45 10° N
STARLINK-1362 4.0 02:56:04 46° ENE 02:56:04 46° ENE 02:58:57 10° NE
Terra 3.4 02:55:01 21° ENE 02:55:09 21° ENE 02:58:41 10° NNE
STARLINK-1106 3.6 02:51:10 10° NW 02:55:17 66° NE 02:55:39 62° ENE
Resurs 01 Rocket 2.7 02:54:43 24° SSW 02:56:50 39° W 03:01:02 10° NNW
USA 245 4.3 02:58:45 27° N 02:58:45 27° N 03:00:01 10° N
Centaur D-1A AC-32 4.5 02:52:05 10° W 02:58:59 19° SW 03:00:30 17° SSW
STARLINK-1373 4.0 03:00:24 47° NE 03:00:24 47° NE 03:03:18 10° NE
ASTRO E2 3.9 02:56:10 10° W 02:58:52 30° SW 02:58:52 30° SW
STARLINK-1112 3.5 02:56:08 10° NW 03:00:17 74° NE 03:00:26 73° ENE
Abrixas rocket 3.5 02:58:21 10° WNW 03:00:09 33° WNW 03:00:09 33° WNW
Cosmos 1242 Rocket 3.9 03:04:40 31° NE 03:04:40 31° NE 03:06:51 10° NNE
STARLINK-1390 3.9 03:04:34 53° NE 03:04:34 53° NE 03:07:42 10° NE
Cosmos 1943 Rocket 3.4 02:58:41 10° SW 03:03:50 40° WNW 03:09:04 10° N
Cosmos 2026 Rocket 4.0 03:02:16 43° SSE 03:04:17 66° E 03:10:35 10° NNE
SPOT 1/Viking Rocket 3.5 03:03:35 55° SE 03:04:33 68° ENE 03:09:40 10° N
STARLINK-1128 3.5 03:01:05 10° NW 03:05:12 83° NE 03:05:12 83° NE
STARLINK-1365 3.5 03:07:35 72° W 03:07:52 78° NW 03:11:54 10° NE
STARLINK-1113 3.6 03:06:04 10° NW 03:10:01 80° WNW 03:10:01 80° WNW
STARLINK-1119 3.8 03:11:02 10° NW 03:14:47 69° WNW 03:14:47 69° WNW
CENTAUR R/B 3.7 03:07:56 10° NNW 03:15:56 48° NE 03:19:27 33° ESE
Cosmos 1766 3.5 03:13:27 10° N 03:17:08 68° WNW 03:17:08 68° WNW
Cosmos 1486 Rocket 4.3 03:12:53 10° N 03:17:59 49° ENE 03:18:10 48° ENE
STARLINK-1114 4.0 03:16:03 10° NW 03:19:34 59° W 03:19:34 59° W
Cosmos 1992 Rocket 3.8 03:21:19 72° S 03:21:52 85° ESE 03:27:05 10° NNE
ATLAS 3B R/B 4.3 03:17:45 10° N 03:22:57 22° NE 03:25:46 18° ENE
STARLINK-1338 4.2 03:23:32 52° NNW 03:23:32 52° NNW 03:27:07 10° NE
Cosmos 1656 Rocket 3.6 03:22:49 46° SSW 03:24:33 83° WNW 03:30:10 10° NNE
STARLINK-1130 (DARKSAT) 4.3 03:21:02 10° NW 03:24:21 50° W 03:24:21 50° W
Meteor 1-21 4.1 03:25:54 65° S 03:26:48 89° E 03:32:25 10° N
Cosmos 2369 Rocket 3.9 03:31:37 10° WSW 03:36:32 30° WNW 03:41:29 10° N
NOSS 3-2 (C) 4.2 03:28:47 10° NNW 03:36:40 70° ENE 03:39:06 49° ESE
SL-8 R/B 4.0 03:33:01 10° NW 03:37:06 59° W 03:37:06 59° W
NOSS 3-4 (A) 4.2 03:33:04 10° SW 03:38:43 48° NW 03:44:38 10° NNE
NOSS 3-4 (C) 4.2 03:33:09 10° SW 03:38:49 48° NW 03:44:45 10° NNE
ERS-1 Rocket 2.9 03:39:13 75° W 03:39:13 75° W 03:44:15 10° NNW
Cosmos 1655 Rocket 4.2 03:40:04 53° E 03:40:04 53° E 03:45:58 10° NNE
ATLAS 3B CENTAUR R/B 3.2 03:25:19 10° W 03:40:43 63° SSW 03:42:24 54° SSE
OAO 1 4.5 03:38:06 10° WNW 03:43:39 81° N 03:43:40 81° NNE
Cosmos 1025 Rocket 4.1 03:45:13 39° NNE 03:45:13 39° NNE 03:47:58 10° N
BREEZE-M DEB (TANK) 3.5 03:35:42 10° NW 03:44:10 57° NNE 03:44:45 53° ENE
Cosmos 1867 4.0 03:52:44 10° NNW 03:57:37 53° NE 03:57:37 53° NE
Cosmos 968 Rocket 3.7 03:53:29 10° NNW 03:57:51 65° NNW 03:57:51 65° NNW
ATLAS 5 CENTAUR R/B 3.4 03:50:57 10° SW 04:00:05 46° WNW 04:03:14 10° NNE
ATLAS 2AS CENTAUR R/B 4.3 03:59:26 10° WSW 04:06:40 38° NW 04:14:00 10° NNE
COSMOS 2455 3.9 04:13:27 26° WSW 04:16:08 40° WNW 04:21:46 10° N
Cosmos 1953 4.5 04:13:09 10° N 04:14:45 23° N 04:14:45 23° N
Meteor 2-19 Rocket 4.5 04:22:19 75° N 04:22:19 75° N 04:27:52 10° N
Thor Agena Rocket 4.2 04:19:17 10° NNE 04:23:11 51° NNE 04:23:11 51° NNE
SPOT 5 4.5 04:25:37 30° W 04:25:37 30° W 04:29:53 10° NW
Terra 3.5 04:33:54 27° WNW 04:33:54 27° WNW 04:36:53 10° NW
SeaSat 1 3.7 04:47:07 10° NNE 04:50:08 38° N 04:50:08 38° N
Cosmos 2297 Rocket 4.1 04:49:22 10° NNE 04:53:23 20° ENE 04:53:23 20° ENE
Cosmos 2315 Rocket 4.3 04:52:56 10° N 04:58:03 63° N 04:58:03 63° N
CENTAUR R/B 3.9 04:58:55 10° NW 05:06:37 40° WSW 05:06:37 40° WSW
Milstar 3 Cent rocket 4.4 05:01:55 10° W 05:13:00 75° S 05:38:06 10° E
Cosmos 1697 Rocket 4.4 05:15:47 24° NE 05:15:47 24° NE 05:18:18 10° NE
ATLAS 3B R/B 3.0 05:07:18 10° NW 05:13:00 59° WNW 05:13:00 59° WNW
Cosmos 2227 Rocket 3.5 05:26:11 10° N 05:30:27 34° NE 05:30:27 34° NE
Cosmos 1745 Rocket 4.5 05:50:15 55° NNE 05:50:15 55° NNE 05:54:57 10° N
FALCON 9 R/B 3.5 05:53:12 44° E 05:53:12 44° E 06:02:35 10° E
Lacrosse 4 Rocket 4.1 05:50:31 10° N 05:52:03 17° NNE 05:52:03 17° NNE
CZ-4C R/B 3.4 06:00:11 35° NNW 06:00:11 35° NNW 06:04:00 10° NNE
BREEZE M DEB (TANK) 4.3 06:06:26 67° ESE 06:06:26 67° ESE 06:28:29 10° NE
Cosmos 1980 Rocket 3.3 06:12:34 39° NE 06:12:34 39° NE 06:16:13 10° NNE
SJ 16-02 3.6 06:11:17 10° NNW 06:12:52 22° NNW 06:12:52 22° NNW
Cosmos 1709 Rocket 4.3 06:38:36 59° NNW 06:38:36 59° NNW 06:43:40 10° N
Cosmos 2297 Rocket 3.7 06:32:20 10° NNW 06:35:10 28° NW 06:35:10 28° NW
USA 215 3.8 06:35:30 35° E 06:38:07 55° NE 06:44:29 10° NNW
SL-16 R/B 4.0 06:39:30 25° E 06:41:22 30° ENE 06:46:36 10° N
Cosmos 2322 Rocket 3.7 06:49:46 27° E 06:49:46 27° E 06:53:40 10° NE
Cosmos 2082 4.5 06:46:01 10° NNW 06:49:50 44° NNW 06:49:50 44° NNW
Cosmos 1697 Rocket 4.2 06:57:30 25° NW 06:57:30 25° NW 07:01:46 10° N
Cosmos 2285 Rocket 4.1 06:58:08 10° NNW 07:03:42 69° NW 07:03:42 69° NW
Resurs 1-4 Rocket 2.4 07:08:26 10° NNE 07:13:02 63° NE 07:13:02 63° NE
Cosmos 2227 Rocket 4.2 07:10:38 10° NW 07:12:15 17° WNW 07:12:15 17° WNW
SL-16 R/B 2.3 07:24:07 72° ENE 07:24:07 72° ENE 07:29:27 10° NNE
Cosmos 2074 Rocket 3.9 07:24:26 81° W 07:24:28 81° W 07:30:47 10° N
Cosmos 2298 Rocket 4.1 07:30:29 10° NNW 07:35:12 71° NNW 07:35:12 71° NNW
CZ-2D R/B 2.3 07:37:05 10° N 07:41:49 58° NW 07:41:49 58° NW
BREEZE-M DEB (TANK) 3.5 07:41:43 50° NW 07:42:15 53° NNW 07:52:34 10° NE
Cosmos 2360 Rocket 2.8 07:46:14 43° SE 07:47:02 46° ESE 07:52:24 10° NE
Cosmos 2184 Rocket 4.2 07:48:41 51° W 07:48:51 51° W 07:54:50 10° N
Cosmos 2327 Rocket 4.4 07:50:49 64° SW 07:51:39 72° W 07:58:01 10° N
Cosmos 1076 Rocket 3.7 07:55:10 68° NE 07:55:10 68° NE 07:59:09 10° N
Cosmos 1980 Rocket 4.1 07:54:20 15° WNW 07:55:04 16° WNW 07:58:24 10° NNW
Cosmos 1892 3.6 07:56:58 47° NNE 07:56:58 47° NNE 07:59:46 10° N
Cosmos 1610 Rocket 4.4 07:57:00 61° WSW 07:57:44 67° W 08:03:53 10° N
Cosmos 2333 Rocket 4.3 07:55:20 13° SE 07:58:10 19° E 08:02:00 10° ENE
Cosmos 2151 4.5 07:58:01 27° ESE 07:58:56 29° E 08:02:40 10° NNE
CRYOSAT 2 4.4 07:55:27 10° N 08:00:05 65° WNW 08:00:05 65° WNW
STARLINK-1008 4.2 08:01:34 51° E 08:01:34 51° E 08:04:55 10° NE
STARLINK-24 4.1 08:01:58 57° NE 08:01:58 57° NE 08:05:13 10° NE
IRIDIUM 103 4.3 08:00:37 66° SSE 08:01:20 81° E 08:06:34 10° N
CBERS-1 3.8 07:57:01 10° N 08:02:09 82° WNW 08:02:33 74° SW
Cosmos 1869 3.9 07:59:28 10° N 08:02:21 49° N 08:02:21 49° N
Cosmos 2219 Rocket 4.2 08:02:25 13° SE 08:05:27 20° E 08:09:25 10° NE
STARLINK-1014 4.0 08:06:23 59° E 08:06:23 59° E 08:09:54 10° NE
Timation 1 Rocket 4.4 08:00:06 10° NNW 08:05:50 53° WSW 08:05:50 53° WSW
Lacrosse 5 rocket 3.7 08:09:53 14° SE 08:10:09 14° ESE 08:12:18 10° E
STARLINK-1025 3.7 08:11:08 71° ENE 08:11:08 71° ENE 08:14:55 10° NE
STARLINK-25 4.2 08:14:07 43° N 08:14:07 43° N 08:16:40 10° NE
STARLINK-1017 3.6 08:15:54 82° ENE 08:15:54 82° ENE 08:19:53 10° NE
Cosmos 2263 Rocket 2.1 08:13:22 10° NNW 08:18:53 63° WSW 08:19:55 53° SSW
IRIDIUM 106 4.3 08:18:52 58° SW 08:19:38 66° W 08:24:49 10° N
Cosmos 962 Rocket 4.4 08:18:03 46° SSW 08:19:58 78° W 08:26:10 10° N
STARLINK-1023 3.5 08:20:41 83° NW 08:20:42 83° NW 08:24:51 10° NE
USA 215 4.0 08:22:46 30° W 08:22:46 30° W 08:27:02 10° WNW
Cosmos 2154 Rocket 4.4 08:21:54 39° WSW 08:23:03 42° W 08:28:56 10° N
ADEOS II 2.1 08:18:54 10° N 08:24:07 65° WNW 08:25:17 50° SW
SL-16 R/B 3.1 08:24:35 35° WSW 08:24:46 35° W 08:30:22 10° NNW
STARLINK-1007 3.5 08:25:30 72° WNW 08:25:43 74° NW 08:29:51 10° NE
STARLINK-81 3.9 08:26:24 46° NNW 08:26:24 46° NNW 08:29:45 10° NNE
STARLINK-54 4.1 08:28:10 39° NW 08:28:10 39° NW 08:31:32 10° NNE
IDEFIX/ARIANE 42P 3.7 08:24:10 10° NNE 08:29:04 39° E 08:32:34 18° SSE
STARLINK-77 4.0 08:29:34 43° NW 08:29:34 43° NW 08:33:01 10° NNE
STARLINK-1048 3.6 08:30:16 61° W 08:30:40 66° NW 08:34:47 10° NE
Cosmos 1408 2.8 08:31:51 56° WNW 08:31:51 56° WNW 08:35:11 10° N
IRS-1D 4.1 08:26:57 10° N 08:31:49 40° WNW 08:32:45 37° W
Cosmos 2221 3.4 08:27:54 10° NNW 08:31:16 33° WNW 08:31:16 33° WNW
Cosmos 1825 2.0 08:32:28 73° SSE 08:32:47 85° E 08:36:33 10° N
Cosmos 2322 Rocket 3.1 08:31:35 29° W 08:32:51 32° WNW 08:37:52 10° N
STARLINK-79 4.1 08:34:16 38° NW 08:34:27 38° NW 08:37:51 10° NNE
STARLINK-1049 3.8 08:35:03 52° W 08:35:40 59° NW 08:39:45 10° NE
STARLINK-78 4.2 08:35:49 36° NW 08:36:04 36° NW 08:39:26 10° NNE
IRS-1C 4.2 08:31:19 10° N 08:36:34 62° WNW 08:38:18 40° SW
STARLINK-57 4.4 08:37:28 32° NW 08:37:48 33° NW 08:41:07 10° NNE
STARLINK-49 4.3 08:38:57 33° NW 08:39:19 34° NW 08:42:38 10° NNE
ARIANE 5 R/B 2.4 08:34:48 10° N 08:39:49 78° WNW 08:41:40 39° SSW
STARLINK-1051 4.0 08:39:48 44° W 08:40:38 53° NW 08:44:41 10° NE
STARLINK-27 4.4 08:40:31 31° WNW 08:40:57 32° NW 08:44:15 10° NNE
STARLINK-74 4.4 08:42:04 30° WNW 08:42:34 31° NW 08:45:50 10° NNE
SL-24 DEB 4.2 08:37:59 10° N 08:42:36 84° E 08:44:43 32° S
Cosmos 2058 4.5 08:48:46 21° WNW 08:48:46 21° WNW 08:51:48 10° NNW
STARLINK-1028 4.4 08:49:23 33° W 08:50:37 42° NW 08:54:35 10° NNE
Resurs 1-4 Rocket 4.2 08:51:02 10° NW 08:52:53 12° WNW 08:54:06 11° WNW
Cosmos 2366 rocket 3.9 08:50:31 23° S 08:54:33 80° W 09:00:52 10° N
Delta 2 Rocket 4.3 08:52:38 30° SW 08:54:58 42° S 09:00:34 10° ESE
CZ-3A R/B 4.1 08:54:52 11° S 08:58:24 18° SE 09:06:27 10° E
CZ-4C R/B 3.9 08:57:23 10° SSE 09:00:55 52° ENE 09:04:28 10° N
GEOS 3 Rocket 3.7 08:56:01 10° SSE 09:01:00 52° WSW 09:06:06 10° NW
Cosmos 2237 Rocket 4.4 08:56:59 10° SSE 09:01:01 20° E 09:05:04 10° NE
MSX 4.3 08:55:38 10° NNE 09:01:17 57° E 09:06:53 10° S
BREEZE-M TANK 3.2 09:00:18 26° S 09:01:42 35° SE 09:04:28 10° ENE
STARLINK-1027 4.5 09:01:04 25° S 09:02:56 41° SE 09:06:50 10° ENE
COBE Rocket 4.0 09:02:52 19° S 09:06:24 58° W 09:11:28 10° NNW
STARLINK-1060 4.3 09:05:49 25° S 09:07:52 46° SE 09:11:50 10° ENE
SL-16 R/B 4.2 09:05:58 11° W 09:08:27 14° NW 09:11:11 10° NNW
Spot 4 Rocket 4.2 09:04:52 10° N 09:09:53 55° WNW 09:12:58 23° SW
COSMOS 2428 2.8 09:06:24 18° SSW 09:10:44 76° ESE 09:16:25 10° NNE
STARLINK-1030 4.1 09:10:36 24° SSW 09:12:50 52° SE 09:16:52 10° NE
Cosmos 1844 Rocket 2.9 09:08:14 10° NNW 09:13:49 72° ENE 09:19:21 10° SSE
Cosmos 1818 3.9 09:10:05 17° SSW 09:14:10 64° ESE 09:19:33 10° NE
Cosmos 1408 Rocket 3.4 09:11:55 17° S 09:15:10 86° W 09:19:30 10° N
USA 229 DEB 4.3 09:09:38 10° NW 09:16:31 41° WSW 09:23:36 10° S
USA 229 4.3 09:09:43 10° NW 09:16:38 42° WSW 09:23:43 10° S
STARLINK-1020 3.9 09:15:24 23° SSW 09:17:48 59° SE 09:21:53 10° NE
Meteor 1-28 Rocket 3.6 09:16:04 24° SSW 09:17:53 41° W 09:21:26 10° NNW
Cosmos 1538 Rocket 4.5 09:15:42 22° SW 09:18:51 46° WNW 09:24:01 10° N
BREEZE-M R/B 4.3 09:17:37 16° SSW 09:20:09 27° SSE 09:22:04 10° E
STARLINK-1052 3.8 09:20:10 21° SSW 09:22:46 67° SE 09:26:53 10° NE
STARLINK-60 2.9 09:21:11 10° NW 09:24:19 58° SW 09:27:28 10° SSE
CZ-2D R/B 4.5 09:20:49 10° N 09:24:39 32° WNW 09:27:02 19° WSW
Cosmos 2098 4.3 09:22:45 20° SSW 09:24:48 72° W 09:28:28 10° N
NOSS 3-1 (A) 4.3 09:18:06 10° NW 09:25:58 54° WSW 09:34:33 10° S
SL-4 R/B 2.2 09:21:17 10° NW 09:26:00 72° SW 09:30:23 10° SE
Cosmos 1727 Rocket 4.0 09:20:07 10° N 09:26:18 88° W 09:32:29 10° S
SL-08 R/B 4.2 09:25:19 19° SW 09:27:26 27° W 09:31:20 10° NW
Cosmos 2360 Rocket 3.7 09:28:00 13° W 09:31:14 20° WNW 09:35:22 10° NNW
ERS-2 2.9 09:29:06 17° SSW 09:31:22 32° W 09:34:41 10° NW
H-2A R/B 2.3 09:27:08 10° S 09:31:23 51° W 09:35:45 10° NNW
STARLINK-1444 2.1 09:30:23 10° NW 09:32:42 59° SW 09:35:10 10° SSE
STARLINK-1033 3.6 09:29:45 18° SW 09:32:43 84° SE 09:36:52 10° NE
STARLINK-1452 2.1 09:31:01 10° NW 09:33:20 58° SW 09:35:47 10° SSE
Cosmos 1606 2.7 09:29:48 10° NNW 09:33:31 55° W 09:37:12 10° S
STARLINK-1450 2.1 09:31:57 10° NW 09:34:13 54° SW 09:36:37 10° SSE
STARLINK-1392 2.2 09:32:08 10° NW 09:34:23 54° SW 09:36:48 10° SSE
STARLINK-1399 2.2 09:32:09 10° NW 09:34:25 54° SW 09:36:50 10° SSE
STARLINK-1415 2.2 09:32:09 10° NW 09:34:25 54° SW 09:36:49 10° SSE
STARLINK-1394 2.2 09:32:10 10° NW 09:34:26 54° SW 09:36:50 10° SSE
STARLINK-1395 2.2 09:32:10 10° NW 09:34:26 54° SW 09:36:51 10° SSE
STARLINK-1393 2.2 09:32:11 10° NW 09:34:27 54° SW 09:36:51 10° SSE
STARLINK-1401 2.2 09:32:11 10° NW 09:34:27 54° SW 09:36:51 10° SSE
STARLINK-1396 2.2 09:32:11 10° NW 09:34:27 54° SW 09:36:52 10° SSE
STARLINK-1397 2.2 09:32:11 10° NW 09:34:27 54° SW 09:36:52 10° SSE
STARLINK-1453 2.2 09:32:12 10° NW 09:34:28 54° SW 09:36:52 10° SSE
STARLINK-1404 2.2 09:32:13 10° NW 09:34:29 54° SW 09:36:53 10° SSE
STARLINK-1417 2.2 09:32:14 10° NW 09:34:30 54° SW 09:36:55 10° SSE
STARLINK-1402 2.2 09:32:14 10° NW 09:34:30 54° SW 09:36:55 10° SSE
STARLINK-1413 2.2 09:32:15 10° NW 09:34:31 54° SW 09:36:55 10° SSE
STARLINK-1406 2.2 09:32:16 10° NW 09:34:32 54° SW 09:36:56 10° SSE
STARLINK-1440 2.2 09:32:18 10° NW 09:34:33 54° SW 09:36:58 10° SSE
STARLINK-1414 2.2 09:32:16 10° NW 09:34:34 54° SW 09:37:01 10° SSE
STARLINK-1445 2.2 09:32:18 10° NW 09:34:34 53° SW 09:36:59 10° SSE
STARLINK-1443 2.2 09:32:19 10° NW 09:34:35 53° SW 09:36:59 10° SSE
STARLINK-1454 2.2 09:32:20 10° NW 09:34:35 53° SW 09:37:00 10° SSE
STARLINK-1416 2.2 09:32:18 10° NW 09:34:36 54° SW 09:37:03 10° SSE
STARLINK-1457 2.2 09:32:21 10° NW 09:34:36 53° SW 09:37:01 10° SSE
STARLINK-1408 2.2 09:32:19 10° NW 09:34:37 54° SW 09:37:03 10° SSE
STARLINK-1456 2.2 09:32:21 10° NW 09:34:37 53° SW 09:37:01 10° SSE
STARLINK-1451 2.2 09:32:21 10° NW 09:34:37 53° SW 09:37:02 10° SSE
STARLINK-1442 2.2 09:32:23 10° NW 09:34:38 53° SW 09:37:03 10° SSE
STARLINK-1436 (VISORSAT) 2.2 09:32:22 10° NW 09:34:39 54° SW 09:37:06 10° SSE
STARLINK-1419 2.2 09:32:23 10° NW 09:34:40 54° SW 09:37:07 10° SSE
STARLINK-1405 2.2 09:32:26 10° NW 09:34:41 53° SW 09:37:06 10° SSE
STARLINK-1421 2.2 09:32:26 10° NW 09:34:41 53° SW 09:37:06 10° SSE
STARLINK-1398 2.2 09:32:23 10° NW 09:34:41 54° SW 09:37:09 10° SSE
STARLINK-1410 2.2 09:32:26 10° NW 09:34:42 53° SW 09:37:07 10° SSE
STARLINK-1400 2.2 09:32:26 10° NW 09:34:42 53° SW 09:37:07 10° SSE
STARLINK-1407 2.2 09:32:27 10° NW 09:34:43 53° SW 09:37:07 10° SSE
STARLINK-1439 2.2 09:32:27 10° NW 09:34:44 53° SW 09:37:08 10° SSE
STARLINK-1409 2.2 09:32:28 10° NW 09:34:44 53° SW 09:37:08 10° SSE
STARLINK-1351 2.2 09:32:29 10° NW 09:34:45 53° SW 09:37:09 10° SSE
STARLINK-1370 2.2 09:32:29 10° NW 09:34:45 53° SW 09:37:09 10° SSE
STARLINK-1422 2.2 09:32:27 10° NW 09:34:45 54° SW 09:37:12 10° SSE
STARLINK-1418 2.2 09:32:29 10° NW 09:34:45 53° SW 09:37:10 10° SSE
STARLINK-1434 2.2 09:32:29 10° NW 09:34:45 53° SW 09:37:10 10° SSE
STARLINK-1420 2.2 09:32:28 10° NW 09:34:45 54° SW 09:37:12 10° SSE
STARLINK-1403 2.2 09:32:30 10° NW 09:34:46 53° SW 09:37:11 10° SSE
STARLINK-1460 2.2 09:32:30 10° NW 09:34:48 54° SW 09:37:15 10° SSE
STARLINK-1433 2.2 09:32:32 10° NW 09:34:48 53° SW 09:37:13 10° SSE
STARLINK-1411 2.2 09:32:33 10° NW 09:34:49 53° SW 09:37:14 10° SSE
STARLINK-1438 2.2 09:32:34 10° NW 09:34:49 53° SW 09:37:14 10° SSE
STARLINK-1458 2.2 09:32:33 10° NW 09:34:51 54° SW 09:37:18 10° SSE
STARLINK-1423 2.2 09:32:36 10° NW 09:34:54 54° SW 09:37:21 10° SSE
STARLINK-1446 2.2 09:32:36 10° NW 09:34:55 54° SW 09:37:22 10° SSE
STARLINK-1437 2.2 09:32:38 10° NW 09:34:56 53° SW 09:37:23 10° SSE
STARLINK-1447 2.2 09:32:40 10° NW 09:34:58 53° SW 09:37:26 10° SSE
STARLINK-1455 2.2 09:32:40 10° NW 09:34:59 53° SW 09:37:26 10° SSE
STARLINK-1441 2.2 09:32:41 10° NW 09:35:01 53° SW 09:37:27 10° SSE
STARLINK-1448 2.2 09:32:45 10° NW 09:35:04 53° SW 09:37:31 10° SSE
STARLINK-1449 2.2 09:32:46 10° NW 09:35:05 53° SW 09:37:32 10° SSE
STARLINK-1412 2.2 09:32:55 10° NW 09:35:14 53° SW 09:37:41 10° SSE
Cosmos 1151 Rocket 3.1 09:31:29 10° NNW 09:35:49 62° W 09:40:07 10° S
deb Chang Zheng 4 3.5 09:32:12 10° NNE 09:36:30 89° ESE 09:40:44 10° SSW
STARLINK-1031 3.6 09:34:32 17° SW 09:37:41 86° NW 09:41:50 10° NE
CZ-2C R/B 3.6 09:34:29 10° N 09:37:53 32° WNW 09:40:31 15° SW
SWARM C 4.5 09:35:10 10° N 09:38:30 89° E 09:41:49 10° S
SWARM A 4.1 09:35:17 10° N 09:38:37 78° W 09:41:55 10° S
SAR-Lupe-4 3.9 09:37:08 10° SSE 09:40:41 68° ENE 09:44:15 10° N
Cosmos 2333 Rocket 2.6 09:37:22 14° SW 09:41:59 46° WNW 09:47:25 10° N
STARLINK-1024 3.6 09:39:18 15° SW 09:42:39 77° NW 09:46:48 10° NE
Cosmos 1515 Rocket 3.5 09:40:10 10° N 09:44:32 87° E 09:48:51 10° S
STARLINK-1035 3.7 09:44:06 14° SW 09:47:38 69° NW 09:51:46 10° NE
Lacrosse 5 rocket 1.8 09:45:32 13° WSW 09:48:59 47° NW 09:52:45 10° NNE
Cosmos 2219 Rocket 2.7 09:44:09 12° SW 09:49:00 43° WNW 09:54:17 10° N
Cosmos 2112 Rocket 4.0 09:46:46 10° SSW 09:52:00 89° WNW 09:57:20 10° NNE
STARLINK-1032 3.8 09:48:52 12° SW 09:52:37 61° NW 09:56:43 10° NE
BREEZE-M DEB (TANK) 3.6 09:47:57 10° WSW 09:53:05 43° NW 09:55:52 10° NE
Meteor 1-26 Rocket 4.4 09:47:55 10° N 09:53:49 77° W 09:59:49 10° S
STARLINK-1037 3.9 09:52:08 11° WSW 09:55:59 56° NW 10:00:03 10° NE
SAR-Lupe-1 4.0 09:52:47 10° S 09:56:20 78° W 09:59:53 10° NNW
STARLINK-29 2.8 09:53:31 10° NW 09:56:40 64° SW 09:59:47 10° SE
STARLINK-1011 4.0 09:53:39 11° WSW 09:57:35 55° NW 10:01:39 10° NE
Cosmos 2344 3.7 09:50:23 10° SW 09:58:04 68° WNW 10:05:42 10° NNE
Cosmos 1633 2.9 09:54:56 10° SSW 09:58:23 47° W 10:01:52 10° N
ATLAS 5 CENTAUR R/B 1.6 09:57:50 10° SW 10:01:47 59° WNW 10:06:04 10° NNE
CZ-2C R/B 2.6 09:57:17 10° N 10:02:29 73° WNW 10:07:34 10° SSW
STARLINK-1036 4.1 09:58:34 10° WSW 10:02:35 49° NW 10:06:37 10° NNE
USA 32 4.2 09:58:46 10° SSW 10:03:52 56° W 10:09:01 10° N
Cosmos 1743 Rocket 4.0 10:00:52 10° SSW 10:05:03 44° W 10:09:15 10° N
STARLINK-1044 4.3 10:03:37 10° WSW 10:07:35 44° NW 10:11:33 10° NNE
IDEFIX/ARIANE 42P 4.0 10:04:30 10° NNW 10:08:20 21° WNW 10:12:08 10° WSW
CZ-4B R/B 1.1 10:05:22 10° S 10:08:22 64° WSW 10:11:28 10° NNW
Cosmos 1346 Rocket 3.1 10:07:09 10° SSW 10:11:02 50° W 10:14:55 10° N
